User: anonymous   Login
Location: Luz Observatory
(34.5000°N, 117.2833°W)
Time: 16:00:20
(UTC-08:00)
Language:

Cosmos 1452 Rocket - Orbit

View from above orbital plane
View from above orbital plane
View from above satellite
View from above satellite

Ground track
Ground track

The orbit data is extracted from the following two-line orbital elements,

1 13992U 83031B   14324.50247152  .00000376  00000-0  13895-3 0  5631
2 13992 074.0539 290.3666 0004194 158.0365 332.1751 14.35817932653922
Epoch (UTC): 20 November 2014 12:03:33
Eccentricity: 0.0004194
inclination: 74.0539°
perigee height: 769 km
apogee height: 775 km
right ascension of ascending node: 290.3666°
argument of perigee: 158.0365°
revolutions per day: 14.35817932
mean anomaly at epoch: 332.1751°
orbit number at epoch: 65392

The dashed part of the orbit path shows where the satellite is in the earth's shadow,  

DLR